Location: Delia
(51.6321°N, 112.3740°W)
Time: 13:02:28
(UTC+00:00)

Envisat - Pass Details

Date: 08 December 2021
Orbit: 764 x 766 km, 98.2° (Epoch: 28 January)

Event Time Altitude Azimuth Distance (km) Brightness Sun altitude
Rises 01:00:01 0° 214° (SW) 3,224 7.1 -14.5°
Reaches altitude 10° 01:03:13 10° 236° (SW) 2,304 6.7 -14.9°
Maximum altitude 01:06:18 16° 273° (W) 1,926 6.1 -15.4°
Drops below altitude 10° 01:09:23 10° 311° (NW) 2,315 5.9 -15.8°
Sets 01:12:38 0° 333° (NNW) 3,247 6.4 -16.3°
